Location: Newark
(52.1031°N, 9.3600°E)
Time: 01:28:01
(UTC+00:00)

MOZHAYETS 4 - Visible Passes

Search period start: 10 December 2019 00:00
Search period end: 20 December 2019 00:00
Orbit: 663 x 680 km, 98.1° (Epoch: 09 December)

Date Brightness Start Highest point End Pass type
(mag) Time Alt. Az. Time Alt. Az. Time Alt. Az.
11 Dec 9.8 15:47:06 10° N 15:50:46 23° WNW 15:54:24 10° WSW visible
12 Dec 10.3 16:21:06 10° NNW 16:23:26 14° NW 16:25:46 10° W visible
14 Dec 9.8 15:49:16 10° N 15:52:51 23° WNW 15:56:25 10° WSW visible
15 Dec 10.3 16:23:19 10° NNW 16:25:31 13° NW 16:27:42 10° W visible
17 Dec 9.9 15:51:25 10° N 15:54:56 22° WNW 15:58:25 10° WSW visible
18 Dec 10.3 16:25:32 10° NNW 16:27:35 13° NW 16:29:38 10° WNW visible
